This demonstration page uses our WeatherBlox Daily Observations layout. Learn more.

Left ArrowRight Arrow

Hourly Observations for April 15, 2015

Temp ( °F °C ) Dew Point ( °F °C ) Humidity (%) Winds ( mph kmh ) Pressure ( in mb ) Visibility ( mi km ) Precip ( " mm )
12:16 am 00:16 Clear 45 7 28 -2 53 53 NE 6 9 30.21 1023 10 16.0934 N/A
12:36 am 00:36 Clear 45 7 28 -2 53 53 NE 6 9 30.21 1023 10 16.0934 N/A
12:55 am 00:55 Clear 45 7 28 -2 53 53 NE 9 15 30.21 1023 10 16.0934 N/A
1:16 am 01:16 Clear 43 6 30 -1 61 61 NE 8 13 30.21 1023 10 16.0934 N/A
1:36 am 01:36 Clear 43 6 30 -1 61 61 NE 9 15 30.21 1023 10 16.0934 N/A
1:55 am 01:55 Clear 45 7 30 -1 57 57 ENE 7 11 30.21 1023 10 16.0934 N/A
2:16 am 02:16 Clear 45 7 28 -2 53 53 ENE 7 11 30.21 1023 10 16.0934 N/A
2:36 am 02:36 Clear 45 7 28 -2 53 53 ENE 9 15 30.21 1023 10 16.0934 N/A
2:55 am 02:55 Clear 45 7 28 -2 53 53 ENE 6 9 30.21 1023 10 16.0934 N/A
3:16 am 03:16 Clear 43 6 28 -2 57 57 NE 7 11 30.21 1023 10 16.0934 N/A
3:36 am 03:36 Clear 43 6 28 -2 57 57 ENE 7 11 30.21 1023 10 16.0934 N/A
3:55 am 03:55 Clear 43 6 28 -2 57 57 NE 5 7 30.21 1023 10 16.0934 N/A
4:16 am 04:16 Clear 41 5 30 -1 66 66 NNE 8 13 30.21 1023 10 16.0934 N/A
4:36 am 04:36 Clear 43 6 30 -1 61 61 NE 7 11 30.21 1023 10 16.0934 N/A
4:55 am 04:55 Clear 43 6 30 -1 61 61 NE 7 11 30.21 1023 10 16.0934 N/A
5:16 am 05:16 Clear 43 6 30 -1 61 61 NE 7 11 30.21 1023 10 16.0934 N/A
5:36 am 05:36 Clear 41 5 30 -1 66 66 NNE 8 13 30.21 1023 10 16.0934 N/A
5:55 am 05:55 Clear 41 5 30 -1 66 66 NNE 9 15 30.21 1023 10 16.0934 N/A
6:16 am 06:16 Clear 43 6 30 -1 61 61 NE 8 13 30.21 1023 10 16.0934 N/A
6:36 am 06:36 Clear 43 6 28 -2 57 57 ENE 7 11 30.21 1023 10 16.0934 N/A
6:55 am 06:55 Clear 41 5 28 -2 61 61 ENE 5 7 30.21 1023 10 16.0934 N/A
7:16 am 07:16 Sunny 41 5 28 -2 61 61 NE 6 9 30.21 1023 10 16.0934 N/A
7:36 am 07:36 Sunny 41 5 30 -1 66 66 NE 6 9 30.21 1023 10 16.0934 N/A
7:55 am 07:55 Sunny 43 6 30 -1 61 61 NE 6 9 30.21 1023 10 16.0934 N/A
8:16 am 08:16 Sunny 45 7 28 -2 53 53 NE 6 9 30.21 1023 10 16.0934 N/A
8:36 am 08:36 Sunny 46 8 28 -2 50 50 NE 7 11 30.21 1023 10 16.0934 N/A
8:56 am 08:56 Sunny 48 9 28 -2 46 46 NE 6 9 30.21 1023 10 16.0934 N/A
9:16 am 09:16 Sunny 48 9 27 -3 43 43 ENE 7 11 30.21 1023 10 16.0934 N/A
9:36 am 09:36 Sunny 52 11 21 -6 30 30 ENE 10 17 30.21 1023 10 16.0934 N/A
9:56 am 09:56 Sunny 55 13 18 -8 23 23 E 16 26 30.21 1023 10 16.0934 N/A
10:16 am 10:16 Sunny 55 13 18 -8 23 23 E 14 22 30.21 1023 10 16.0934 N/A
10:36 am 10:36 Sunny 57 14 16 -9 20 20 E 18 30 30.18 1022 10 16.0934 N/A
10:56 am 10:56 Sunny 61 16 10 -12 13 13 E 21 33 30.18 1022 10 16.0934 N/A
11:16 am 11:16 Sunny 61 16 3 -16 10 10 E 25 41 30.18 1022 10 16.0934 N/A
11:35 am 11:35 Sunny 61 16 3 -16 10 10 E 23 37 30.18 1022 10 16.0934 N/A
11:56 am 11:56 Sunny 61 16 5 -15 11 11 E 21 33 30.18 1022 10 16.0934 N/A
12:16 pm 12:16 Sunny 63 17 10 -12 13 13 E 18 30 30.18 1022 10 16.0934 N/A
12:36 pm 12:36 Sunny 63 17 10 -12 13 13 E 22 35 30.18 1022 10 16.0934 N/A
12:56 pm 12:56 Sunny 64 18 7 -14 10 10 E 20 31 30.18 1022 10 16.0934 N/A
1:16 pm 13:16 Sunny 64 18 7 -14 10 10 E 22 35 30.18 1022 10 16.0934 N/A
1:35 pm 13:35 Sunny 64 18 5 -15 9 9 E 21 33 30.18 1022 10 16.0934 N/A
1:56 pm 13:56 Sunny 66 19 5 -15 9 9 E 23 37 30.18 1022 10 16.0934 N/A
2:16 pm 14:16 Sunny 66 19 7 -14 9 9 E 20 31 30.18 1022 10 16.0934 N/A
2:35 pm 14:35 Sunny 66 19 5 -15 9 9 E 22 35 30.18 1022 10 16.0934 N/A
2:56 pm 14:56 Sunny 68 20 7 -14 9 9 E 21 33 30.18 1022 10 16.0934 N/A
3:16 pm 15:16 Sunny 66 19 5 -15 9 9 E 20 31 30.18 1022 10 16.0934 N/A
3:35 pm 15:35 Sunny 68 20 7 -14 9 9 E 20 31 30.15 1021 10 16.0934 N/A
3:56 pm 15:56 Sunny 68 20 7 -14 9 9 E 20 31 30.15 1021 10 16.0934 N/A
4:16 pm 16:16 Sunny 66 19 9 -13 10 10 E 17 28 30.15 1021 10 16.0934 N/A
4:35 pm 16:35 Sunny 66 19 5 -15 9 9 E 21 33 30.15 1021 10 16.0934 N/A
4:56 pm 16:56 Sunny 66 19 7 -14 9 9 E 18 30 30.15 1021 10 16.0934 N/A
5:16 pm 17:16 Sunny 68 20 3 -16 7 7 E 22 35 30.15 1021 10 16.0934 N/A
5:35 pm 17:35 Partly Cloudy 66 19 3 -16 8 8 E 17 28 30.15 1021 10 16.0934 N/A
5:56 pm 17:56 Partly Cloudy 64 18 7 -14 10 10 E 15 24 30.15 1021 10 16.0934 N/A
6:16 pm 18:16 Mostly Cloudy 63 17 21 -6 20 20 E 10 17 30.15 1021 10 16.0934 N/A
6:35 pm 18:35 Mostly Cloudy 64 18 18 -8 16 16 ESE 17 28 30.15 1021 10 16.0934 N/A
6:56 pm 18:56 Mostly Cloudy 64 18 19 -7 18 18 E 15 24 30.15 1021 10 16.0934 N/A
7:16 pm 19:16 Mostly Cloudy 64 18 18 -8 16 16 ESE 15 24 30.15 1021 10 16.0934 N/A
7:35 pm 19:35 Cloudy 63 17 21 -6 20 20 ESE 14 22 30.15 1021 10 16.0934 N/A
7:56 pm 19:56 Cloudy 63 17 28 -2 27 27 ESE 14 22 30.15 1021 10 16.0934 N/A
8:16 pm 20:16 Cloudy 61 16 32 0 34 34 SE 9 15 30.15 1021 10 16.0934 N/A
8:36 pm 20:36 Cloudy 61 16 34 1 36 36 SE 7 11 30.15 1021 10 16.0934 N/A
8:56 pm 20:56 Cloudy 59 15 36 2 42 42 SSE 5 7 30.15 1021 10 16.0934 N/A
9:16 pm 21:16 Cloudy 59 15 37 3 45 45 SE 6 9 30.15 1021 10 16.0934 N/A
9:36 pm 21:36 Cloudy 59 15 37 3 45 45 SE 6 9 30.15 1021 10 16.0934 N/A
9:56 pm 21:56 Cloudy 59 15 37 3 45 45 SE 8 13 30.18 1022 10 16.0934 N/A
10:15 pm 22:15 Cloudy 59 15 34 1 39 39 ESE 9 15 30.18 1022 10 16.0934 N/A
10:36 pm 22:36 Cloudy 59 15 34 1 39 39 ESE 9 15 30.18 1022 10 16.0934 N/A
10:56 pm 22:56 Mostly Cloudy 59 15 34 1 39 39 SE 8 13 30.18 1022 10 16.0934 N/A
11:15 pm 23:15 Mostly Cloudy 55 13 37 3 51 51 ESE 8 13 30.21 1023 10 16.0934 N/A
11:36 pm 23:36 Partly Cloudy 55 13 37 3 51 51 E 8 13 30.21 1023 10 16.0934 N/A
11:56 pm 23:56 Partly Cloudy 55 13 37 3 51 51 E 9 15 30.15 1021 10 16.0934 N/A

Powered by AerisWeather